Location: Rioux
(40.7500°S, 175.7500°E)
Time: 10:32:54
(UTC+00:00)

Cosmos 1048 Rocket - Pass Details

Date: 12 June 2024
Orbit: 741 x 789 km, 74.0° (Epoch: 20 July)

Event Time Altitude Azimuth Distance (km) Brightness Sun altitude
Rises 17:44:00 0° 337° (NNW) 3,272 7.2 -20.9°
Reaches altitude 10° 17:46:23 10° 335° (NNW) 2,354 6.4 -20.5°
Maximum altitude 17:51:45 74° 250° (WSW) 833 3.9 -19.5°
Drops below altitude 10° 17:57:12 10° 164° (SSE) 2,383 6.6 -18.5°
Sets 17:59:37 0° 162° (SSE) 3,316 7.3 -18.1°
